EST,Max TemperatureF,Mean TemperatureF,Min TemperatureF,Max Dew PointF,MeanDew PointF,Min DewpointF,Max Humidity, Mean Humidity, Min Humidity, Max Sea Level PressureIn, Mean Sea Level PressureIn, Min Sea Level PressureIn, Max VisibilityMiles, Mean VisibilityMiles, Min VisibilityMiles, Max Wind SpeedMPH, Mean Wind SpeedMPH, Max Gust SpeedMPH,PrecipitationIn, CloudCover, Events, WindDirDegrees
2013-2-1,33,28,23,14,8,4,51,42,32,30.10,29.83,29.64,10,10,10,21,14,29,0.00,1,,276
2013-2-2,28,24,19,20,11,4,75,53,39,30.26,30.14,30.05,10,9,2,16,11,22,0.00,4,Snow,258
2013-2-3,33,27,21,21,19,15,86,74,56,30.05,29.85,29.72,10,8,2,10,4,,0.00,6,Snow,332
2013-2-4,30,26,21,21,10,5,86,54,35,29.96,29.82,29.72,10,10,4,24,9,36,0.00,3,Snow,283
2013-2-5,27,25,23,25,18,9,93,74,55,30.02,29.97,29.92,10,6,2,6,2,,0.00,8,Snow,46
2013-2-6,39,32,26,28,21,3,93,74,36,30.29,30.00,29.90,10,6,2,18,4,25,0.01,5,Snow,304
2013-2-7,32,26,19,16,6,1,69,45,28,30.51,30.45,30.30,10,10,10,8,4,16,0.00,2,,15
2013-2-8,33,28,24,32,28,17,100,87,69,30.45,29.90,29.36,10,3,0,32,12,52,0.42,8,Fog-Snow,55
2013-2-9,19,18,15,12,9,7,71,71,70,30.16,29.76,29.35,10,10,10,12,8,21,0.01,0,,322
2013-2-10,34,23,10,21,11,2,93,74,42,30.39,30.35,30.18,10,6,0,10,5,16,0.00,0,Fog,289
2013-2-11,46,29,12,45,35,8,100,93,81,30.36,29.90,29.61,10,4,0,18,6,29,0.39,7,Fog-Rain,203
2013-2-12,44,38,28,41,29,23,96,69,47,29.90,29.73,29.62,10,10,10,18,10,29,0.00,2,,275
2013-2-13,41,34,26,26,23,19,89,68,49,29.89,29.81,29.66,10,10,9,9,4,,0.00,1,,240
2013-2-14,43,34,24,30,26,19,100,79,38,30.01,29.82,29.69,10,6,0,13,3,,0.14,2,Fog-Snow,312
2013-2-15,46,35,24,37,31,22,100,86,60,30.04,29.99,29.94,10,5,0,20,4,26,0.00,2,Fog,209
2013-2-16,37,34,30,34,31,27,100,90,73,29.95,29.82,29.64,10,5,0,10,4,17,0.08,8,Fog-Snow,356
2013-2-17,30,24,18,27,14,2,86,70,41,29.66,29.46,29.36,10,3,0,26,14,50,0.05,8,Fog-Snow,314
2013-2-18,30,22,15,6,2,0,52,40,29,30.18,29.98,29.71,10,10,7,25,17,36,0.00,0,Snow,282
2013-2-19,46,34,21,45,33,6,97,79,43,30.18,29.87,29.59,10,7,2,15,7,23,0.73,5,Rain,204
2013-2-20,44,36,27,43,22,8,93,61,37,29.80,29.66,29.57,10,10,10,23,12,33,0.00,5,,271
2013-2-21,35,30,26,15,12,11,61,50,39,30.14,29.89,29.79,10,10,10,17,12,30,0.00,3,,293
2013-2-22,37,32,28,25,21,16,75,62,53,30.35,30.32,30.20,10,10,10,15,8,23,0.00,8,,1
2013-2-23,39,34,30,35,30,26,93,82,67,30.32,30.12,29.86,10,8,2,14,4,21,0.28,8,Rain-Snow,95
2013-2-24,42,37,32,40,35,30,100,93,87,29.86,29.73,29.62,10,3,1,14,8,22,0.84,8,Rain-Snow,2
2013-2-25,41,34,28,30,29,26,93,83,55,30.25,30.04,29.86,10,9,2,8,4,16,0.00,6,Snow,345
2013-2-26,44,38,32,32,29,24,92,71,47,30.33,30.26,30.12,10,10,9,12,3,,0.00,4,,100
2013-2-27,44,40,37,43,40,33,100,95,83,30.12,29.73,29.56,10,4,0,24,11,39,0.95,8,Fog-Rain,100
2013-2-28,48,42,35,41,37,34,100,88,68,29.64,29.57,29.51,10,8,1,9,3,,0.00,7,,270